Weather in zheleznodorozhnaya stantsiya Kabozha

Russia / Novgorod Oblast     58°48′13″N   35°01′42″E
temp.,
°C
wind,
m/s
gust,
m/s
humid.,
%
clouds,
%
prec.,
mm/h
press.,
hPa
HPBL,
m
3 march, wed
wed300:00−5nw411890 0.0 1014402
03:00−5wnw410940 0.0 1015330
06:00−2wnw499462 0.1 1014781
09:00−2wnw5108981 0.3 1014967
12:00−1w598598 0.1 1012933
15:00−1w5108699 0.1 1010813
18:00−1w51289100 0.1 10071065
21:00−1w51393100 0.3 1004961
4 march, thu
thu400:000wnw51288100 0.4 10011075
03:00−3wnw4128999 0.6 1001718
06:00−6nw412910 0.0 1001484
09:00−6nw4109242 0.0 1001477
12:00−4nw368498 0.0 1001660
15:00−3nw358398 0.1 1002738
18:00−6nw239399 0.1 100255
21:00−8nnw229595 0.1 100321
5 march, fri
fri500:00−8n129792 0.1 100430
03:00−8nnw119796 0.3 100534
06:00−8wnw129798 0.5 100688
09:00−7nw369398 0.8 1007425
12:00−6nw3686100 0.2 1008702
15:00−6nw4679100 0.4 1010942
18:00−7nnw3793100 0.3 1011449
21:00−11n259491 0.3 1014137
6 march, sat
sat600:00−14nnw11938 0.0 101520
03:00−14w229421 0.0 101634
06:00−14w259613 0.0 101692
09:00−11w379318 0.0 1015315
12:00−7w3681100 0.0 1014735
15:00−5wsw4775100 0.1 1012978
18:00−6sw51082100 0.0 10081016
21:00−7sw71491100 0.2 10031127
7 march, sun
sun700:00−6sw71591100 0.9 9971197
03:00−4sw71493100 2.1 9911082
06:00−3sw71494100 1.0 9861100
09:00−2wsw81495100 3.1 9831247
12:00−7w6117576 0.8 9831656
15:00−8wsw6128488 1.0 9841399
18:00−7w61192100 1.0 9831074
21:00−8nnw51091100 2.4 985846